Hourly Data Report for October 16, 2015

All times are specified in Local Standard Time (LST). Add 1 hour to adjust for Daylight Saving Time where and when it is observed.

SAINT JOHN A
NEW BRUNSWICK

45°18'58.000" N
65°53'24.000" W
108.80 m
8104901
71609
YSJ

Download Data

Hourly Data (October 2015)
Hourly Data Report for October 16, 2015
Temp Definition
°C
Dew Point Temp Definition
°C
Rel Hum Definition
%
Wind Dir Definition
10's deg

Wind Spd Definition
km/h
Visibility Definition
km
Stn Press Definition
kPa
Hmdx Definition


Wind Chill Definition


Weather Definition


TIME
00:00 Legend Double Dagger 7.1 5.7 91 22 11 24.1 99.93     LegendNANA
01:00 Legend Double Dagger 7.4 5.7 89 22 12 24.1 99.95     LegendNANA
02:00 Legend Double Dagger 7.6 5.9 89 22 19 24.1 99.92     Mainly Clear
03:00 Legend Double Dagger 6.4 5.7 95 21 13 24.1 99.88     LegendNANA
04:00 Legend Double Dagger 6.4 5.8 96 20 6 24.1 99.81     LegendNANA
05:00 Legend Double Dagger 8.6 7.2 91 18 17 24.1 99.77     Mostly Cloudy
06:00 Legend Double Dagger 9.1 8.0 93 17 17 24.1 99.72     LegendNANA
07:00 Legend Double Dagger 9.5 8.6 94 18 21 24.1 99.68     LegendNANA
08:00 Legend Double Dagger 10.7 9.6 93 18 24 19.3 99.67     Cloudy
09:00 Legend Double Dagger 11.7 9.8 88 19 31 19.3 99.61     LegendNANA
10:00 Legend Double Dagger 11.9 9.7 86 19 32 19.3 99.56     LegendNANA
11:00 Legend Double Dagger 12.4 10.0 85 19 32 19.3 99.46     Cloudy
12:00 Legend Double Dagger 11.2 10.0 92 21 36 8.1 99.40     Moderate Rain,Fog
13:00 Legend Double Dagger 11.4 8.8 84 22 23 19.3 99.35     Rain
14:00 Legend Double Dagger 11.5 9.3 86 23 19 19.3 99.31     Cloudy
15:00 Legend Double Dagger 11.2 9.5 89 23 25 16.1 99.35     Rain Showers
16:00 Legend Double Dagger 11.5 8.6 82 22 26 24.1 99.36     LegendNANA
17:00 Legend Double Dagger 8.8 7.4 91 24 8 16.1 99.45     Rain Showers
18:00 Legend Double Dagger 8.1 7.2 94 25 4 24.1 99.52     LegendNANA
19:00 Legend Double Dagger 7.4 5.2 86 32 31 24.1 99.72     LegendNANA
20:00 Legend Double Dagger 4.3 1.5 82 33 35 24.1 99.81     Mostly Cloudy
21:00 Legend Double Dagger 3.5 1.1 84 32 23 24.1 99.88     LegendNANA
22:00 Legend Double Dagger 3.1 0.3 82 32 21 24.1 99.95     LegendNANA
23:00 Legend Double Dagger 2.5 -0.1 83 34 13 24.1 99.97     Clear

Notes on Data Quality.

Legend

  • E = Estimated
  • M = Missing
  • NA = Not Available
  • ‡ = Partner data that is not subject to review by the National Climate Archives
Date modified: